When you browse on this site, cookies collect data to enhance your experience and personalize the content and advertising you see.
Visit our Privacy Policy to learn more. By continuing to use the site, you agree to this use of cookies and data.
  • In Austria
  • List of Countries
  • For 7 days
  • Water Temperature
  • Weather Map
  • News
  • Weather Widgets
  • user-avatar
    Login

    Hourly Weather Qala i Naw

    Today, 28 February, Friday

    Time Temperature Precipitation Wind Pressure Humidity
    00:00 +1°C° 0.1 mm 2 mps 682 mmHg 95%
    01:00 +1°C° 0.1 mm 2 mps 682 mmHg 95%
    02:00 +1°C° 0.1 mm 2 mps 682 mmHg 94%
    03:00 +2°C° 0.1 mm 1 mps 682 mmHg 93%
    04:00 +2°C° 0 mm 1 mps 681 mmHg 91%
    05:00 +2°C° 0 mm 1 mps 682 mmHg 90%
    06:00 +2°C° 0 mm 1 mps 682 mmHg 89%
    07:00 +3°C° 0 mm 1 mps 682 mmHg 88%
    08:00 +3°C° 0 mm 1 mps 682 mmHg 85%
    09:00 +4°C° 0 mm 1 mps 681 mmHg 82%
    10:00 +5°C° 0 mm 1 mps 681 mmHg 79%
    11:00 +6°C° 0 mm 1 mps 681 mmHg 74%
    12:00 +7°C° 0 mm 1 mps 681 mmHg 70%
    13:00 +9°C° 0 mm 1 mps 680 mmHg 65%
    14:00 +9°C° 0 mm 1 mps 680 mmHg 65%
    15:00 +9°C° 0 mm 1 mps 680 mmHg 64%
    16:00 +10°C° 0 mm 1 mps 680 mmHg 62%
    17:00 +9°C° 0 mm 1 mps 680 mmHg 65%
    18:00 +9°C° 0 mm 1 mps 681 mmHg 67%
    19:00 +9°C° 0 mm 1 mps 681 mmHg 70%
    20:00 +9°C° 0 mm 1 mps 681 mmHg 70%
    21:00 +8°C° 0 mm 1 mps 680 mmHg 71%
    22:00 +8°C° 0 mm 1 mps 680 mmHg 71%
    23:00 +8°C° 0 mm 1 mps 680 mmHg 70%

    Tomorrow, 29 February, Saturday

    Time Temperature Precipitation Wind Pressure Humidity
    00:00 +8°C° 0 mm 1 mps 680 mmHg 70%
    01:00 +8°C° 0 mm 1 mps 680 mmHg 69%
    02:00 +8°C° 0 mm 1 mps 679 mmHg 68%
    03:00 +7°C° 0 mm 2 mps 679 mmHg 67%
    04:00 +7°C° 0 mm 2 mps 679 mmHg 67%
    05:00 +8°C° 0 mm 2 mps 679 mmHg 64%
    06:00 +8°C° 0 mm 2 mps 679 mmHg 62%
    07:00 +8°C° 0 mm 3 mps 679 mmHg 60%
    08:00 +10°C° 0 mm 2 mps 679 mmHg 52%
    09:00 +14°C° 0 mm 2 mps 680 mmHg 44%
    10:00 +16°C° 0 mm 2 mps 680 mmHg 37%
    11:00 +17°C° 0 mm 2 mps 680 mmHg 33%
    12:00 +18°C° 0 mm 2 mps 680 mmHg 30%
    13:00 +21°C° 0 mm 1 mps 680 mmHg 27%
    14:00 +21°C° 0 mm 1 mps 680 mmHg 28%
    15:00 +20°C° 0 mm 2 mps 679 mmHg 28%
    16:00 +20°C° 0 mm 2 mps 679 mmHg 29%
    17:00 +19°C° 0 mm 1 mps 679 mmHg 36%
    18:00 +16°C° 0 mm 1 mps 680 mmHg 43%
    19:00 +14°C° 0 mm 1 mps 680 mmHg 50%
    20:00 +14°C° 0 mm 1 mps 680 mmHg 51%
    21:00 +13°C° 0 mm 1 mps 680 mmHg 52%
    22:00 +12°C° 0 mm 0 mps 680 mmHg 53%
    23:00 +12°C° 0 mm 1 mps 680 mmHg 53%

    Day after tomorrow, 1 March, Sunday

    Time Temperature Precipitation Wind Pressure Humidity
    00:00 +12°C° 0 mm 1 mps 680 mmHg 52%
    01:00 +12°C° 0 mm 1 mps 679 mmHg 52%
    02:00 +11°C° 0 mm 1 mps 679 mmHg 51%
    03:00 +11°C° 0 mm 1 mps 679 mmHg 51%
    04:00 +10°C° 0 mm 2 mps 679 mmHg 50%
    05:00 +10°C° 0 mm 2 mps 679 mmHg 49%
    06:00 +10°C° 0 mm 2 mps 679 mmHg 49%
    07:00 +10°C° 0 mm 2 mps 679 mmHg 48%
    08:00 +13°C° 0 mm 2 mps 680 mmHg 41%
    09:00 +15°C° 0 mm 2 mps 680 mmHg 34%
    10:00 +17°C° 0 mm 2 mps 681 mmHg 27%
    11:00 +19°C° 0 mm 2 mps 681 mmHg 25%
    12:00 +20°C° 0 mm 2 mps 680 mmHg 22%
    13:00 +21°C° 0 mm 2 mps 680 mmHg 20%
    14:00 +21°C° 0 mm 2 mps 680 mmHg 21%
    15:00 +21°C° 0 mm 2 mps 680 mmHg 22%
    16:00 +21°C° 0 mm 2 mps 679 mmHg 23%
    17:00 +19°C° 0 mm 2 mps 680 mmHg 29%
    18:00 +18°C° 0 mm 1 mps 680 mmHg 36%
    19:00 +15°C° 0 mm 0 mps 680 mmHg 42%
    20:00 +14°C° 0 mm 0 mps 680 mmHg 42%
    21:00 +15°C° 0 mm 1 mps 680 mmHg 42%
    22:00 +14°C° 0 mm 1 mps 680 mmHg 42%
    23:00 +14°C° 0 mm 1 mps 680 mmHg 42%

    2 March, Monday

    Time Temperature Precipitation Wind Pressure Humidity
    00:00 +13°C° 0 mm 1 mps 680 mmHg 42%
    01:00 +13°C° 0 mm 1 mps 680 mmHg 42%
    02:00 +13°C° 0 mm 1 mps 680 mmHg 42%
    03:00 +12°C° 0 mm 2 mps 680 mmHg 42%
    04:00 +12°C° 0 mm 2 mps 679 mmHg 41%
    05:00 +12°C° 0 mm 2 mps 679 mmHg 41%
    06:00 +12°C° 0 mm 2 mps 680 mmHg 41%
    07:00 +12°C° 0 mm 2 mps 680 mmHg 41%
    08:00 +14°C° 0 mm 2 mps 680 mmHg 36%
    09:00 +16°C° 0 mm 2 mps 681 mmHg 31%
    10:00 +19°C° 0 mm 2 mps 681 mmHg 26%
    11:00 +20°C° 0 mm 2 mps 681 mmHg 24%
    12:00 +21°C° 0 mm 2 mps 680 mmHg 23%
    13:00 +23°C° 0 mm 2 mps 680 mmHg 21%
    14:00 +23°C° 0 mm 2 mps 679 mmHg 22%
    15:00 +23°C° 0 mm 2 mps 679 mmHg 22%
    16:00 +23°C° 0 mm 2 mps 678 mmHg 23%
    17:00 +20°C° 0 mm 2 mps 678 mmHg 29%
    18:00 +20°C° 0 mm 1 mps 678 mmHg 35%
    19:00 +18°C° 0 mm 1 mps 678 mmHg 40%
    20:00 +16°C° 0 mm 1 mps 679 mmHg 43%
    21:00 +16°C° 0 mm 2 mps 679 mmHg 45%
    22:00 +14°C° 0 mm 3 mps 679 mmHg 48%
    23:00 +14°C° 0 mm 3 mps 679 mmHg 48%

    3 March, Tuesday

    Time Temperature Precipitation Wind Pressure Humidity
    00:00 +14°C° 0 mm 3 mps 679 mmHg 47%
    01:00 +13°C° 0 mm 3 mps 679 mmHg 47%
    02:00 +12°C° 0 mm 3 mps 678 mmHg 55%
    03:00 +10°C° 0 mm 3 mps 678 mmHg 64%
    04:00 +8°C° 0 mm 4 mps 678 mmHg 72%
    05:00 +8°C° 0.1 mm 3 mps 678 mmHg 76%
    06:00 +8°C° 0.1 mm 3 mps 678 mmHg 80%
    07:00 +8°C° 0.1 mm 2 mps 679 mmHg 84%
    08:00 +8°C° 0.1 mm 2 mps 679 mmHg 85%
    09:00 +8°C° 0.1 mm 2 mps 679 mmHg 85%
    10:00 +8°C° 0.1 mm 3 mps 679 mmHg 86%
    11:00 +8°C° 0.1 mm 3 mps 679 mmHg 86%
    12:00 +8°C° 0.1 mm 3 mps 679 mmHg 86%
    13:00 +8°C° 0.1 mm 3 mps 679 mmHg 87%
    14:00 +7°C° 0.1 mm 3 mps 679 mmHg 88%
    15:00 +7°C° 0.1 mm 3 mps 679 mmHg 90%
    16:00 +7°C° 0.1 mm 3 mps 679 mmHg 92%
    17:00 +5°C° 0.1 mm 3 mps 679 mmHg 93%
    18:00 +5°C° 0.1 mm 3 mps 680 mmHg 93%
    19:00 +5°C° 0.1 mm 3 mps 680 mmHg 94%
    20:00 +5°C° 0.3 mm 4 mps 681 mmHg 94%
    21:00 +4°C° 0.3 mm 4 mps 681 mmHg 94%
    22:00 +4°C° 0.3 mm 4 mps 681 mmHg 95%
    23:00 +4°C° 0.3 mm 4 mps 681 mmHg 95%

    4 March, Wednesday

    Time Temperature Precipitation Wind Pressure Humidity
    00:00 +3°C° 0.3 mm 3 mps 681 mmHg 95%
    01:00 +3°C° 0.3 mm 3 mps 681 mmHg 95%
    02:00 +3°C° 0.5 mm 3 mps 681 mmHg 95%
    03:00 +3°C° 0.5 mm 3 mps 681 mmHg 95%
    04:00 +2°C° 0.5 mm 3 mps 681 mmHg 96%
    05:00 +1°C° 0.5 mm 4 mps 681 mmHg 96%
    06:00 +1°C° 0.5 mm 4 mps 681 mmHg 96%
    07:00 0°C° 0.5 mm 4 mps 682 mmHg 96%
    08:00 0°C° 0.5 mm 4 mps 682 mmHg 96%
    09:00 0°C° 0.5 mm 4 mps 682 mmHg 95%
    10:00 +1°C° 0.5 mm 3 mps 682 mmHg 95%
    11:00 +1°C° 0.3 mm 3 mps 682 mmHg 93%
    12:00 +1°C° 0.3 mm 3 mps 682 mmHg 91%
    13:00 +2°C° 0.3 mm 2 mps 681 mmHg 88%
    14:00 +2°C° 0.1 mm 2 mps 681 mmHg 86%
    15:00 +2°C° 0.1 mm 2 mps 681 mmHg 83%
    16:00 +2°C° 0.1 mm 3 mps 681 mmHg 81%
    17:00 +2°C° 0.1 mm 2 mps 682 mmHg 82%
    18:00 +2°C° 0.1 mm 2 mps 682 mmHg 83%
    19:00 +1°C° 0.1 mm 2 mps 682 mmHg 84%
    20:00 +1°C° 0.1 mm 2 mps 683 mmHg 82%
    21:00 +1°C° 0.1 mm 2 mps 683 mmHg 80%
    22:00 +2°C° 0.1 mm 1 mps 683 mmHg 78%
    23:00 +1°C° 0 mm 1 mps 683 mmHg 79%
    Show more